[Iaude] MPEC U282: 2023 UE10 [a=1.39,e=0.44,i=2.5,H=24.9]

mpec at marsden.cfa.harvard.edu mpec at marsden.cfa.harvard.edu
Mon Oct 30 13:48:11 EDT 2023


M.P.E.C. 2023-U282                             Issued 2023 October 30, 17:46 UT

     The Minor Planet Electronic Circulars contain information on unusual
         minor planets, routine data on comets and natural satellites,
         and occasional editorial announcements.  They are published
    on behalf of Division F of the International Astronomical Union by the
          Minor Planet Center, Smithsonian Astrophysical Observatory,
                          Cambridge, MA 02138, U.S.A.
			  
             Prepared using the Tamkin Foundation Computer Network

                              MPC at CFA.HARVARD.EDU
            URL https://www.minorplanetcenter.net/    ISSN 1523-6714

                                   2023 UE10                                    


Observations:
     K23U10E* C2023 10 17.32002501 12 48.528+28 27 01.21         21.80wXEU282F51
     K23U10E  C2023 10 17.33253401 12 47.244+28 26 18.13         21.82wXEU282F51
     K23U10E  C2023 10 17.34510201 12 45.937+28 25 33.49         21.97wXEU282F51
     K23U10E  C2023 10 17.50593001 12 29.043+28 15 54.33         21.96GVEU282F51
     K23U10E  C2023 10 17.50657201 12 28.975+28 15 52.34         21.94GVEU282F51
     K23U10E 2C2023 10 18.06369401 11 47.332+27 43 23.13         21.7 GVEU282J04
     K23U10E 2C2023 10 18.08329701 11 45.377+27 42 14.81         21.9 GVEU282J04
     K23U10E 3C2023 10 18.42222701 11 21.675+27 23 22.62         21.79GVEU282T14
     K23U10E 3C2023 10 18.42320701 11 21.579+27 23 19.38         21.87GVEU282T14
     K23U10E 3C2023 10 18.42419901 11 21.484+27 23 16.05         21.70GVEU282T14
     K23U10E 3C2023 10 18.42519401 11 21.387+27 23 12.69         21.79GVEU282T14

Observer details:
F51 Pan-STARRS 1, Haleakala.  Observers J. Bulger, T. Lowe, P. Minguez, A.
    Schultz, I. Smith.  Measurers K. Chambers, T. de Boer, J. Fairlamb, H.
    Gao, M. Huber, C.-C. Lin, E. Magnier, Y. Ramanjooloo, R. Wainscoat, R.
    Weryk.  1.8-m Ritchey-Chretien + CCD.
J04 ESA Optical Ground Station, Tenerife.  Observers P. Ruiz, F. Ocana, M.
    Micheli, L. Conversi.  Measurers M. Micheli, R. Kresken, F. Ocana.
    1.0-m f/4.4 reflector + CCD.
T14 Canada-France-Hawaii Telescope, Maunakea.  Observers R. Wainscoat, H.
    Januszewski, T. Burdullis.  Measurers R. Weryk, R. Wainscoat.  3.6-m f/4.1
    reflector + CCD.

Orbital elements:
2023 UE10                                                Earth MOID = 0.0418 AU
Epoch 2023 Sept. 13.0 TT = JDT 2460200.5                Bell                    
M  22.18453              (2000.0)            P               Q                  
n   0.60003753     Peri.    3.72417     +0.37120227     +0.92761552             
a   1.3921428      Node   288.06928     -0.85305893     +0.32294457             
e   0.4403967      Incl.    2.51358     -0.36674151     +0.18771323             
P   1.64           H   24.91          G   0.15           U   9                  
Residuals in seconds of arc
231017 F51  0.3-  0.6-    231017 F51  0.1+  0.4+    231018 T14  0.0   0.0
231017 F51  0.1-  0.5+    231018 J04  0.4+  0.1+    231018 T14  0.0   0.0
231017 F51  0.0   0.3+    231018 J04  0.3-  0.4-    231018 T14  0.0   0.0
231017 F51  0.1+  0.0     231018 T14  0.0   0.0

Ephemeris:
2023 UE10                a,e,i = 1.39, 0.44, 3                   q = 0.7790
Date    TT    R. A. (2000) Decl.     Delta      r    Elong.  Phase     V
2023 09 30    03 56 07.1 +69 55 13   0.05908 1.0178   104.2    72.5    21.3
...
2023 10 15    01 16 23.9 +31 00 27   0.1361  1.1242   157.2    20.1    21.8
...
2023 10 23    01 07 09.5 +23 46 52   0.1923  1.1812   164.1    13.4    22.5
...
2023 10 29    01 04 26.2 +20 26 28   0.2390  1.2236   162.6    14.1    23.0
2023 10 30    01 04 12.6 +19 59 40   0.2472  1.2306   161.9    14.5    23.1
2023 10 31    01 04 02.3 +19 34 25   0.2555  1.2376   161.3    14.9    23.2
...
2023 11 06    01 04 01.6 +17 30 04   0.3074  1.2792   156.5    18.0    23.8
...
2023 11 14    01 06 18.1 +15 39 16   0.3830  1.3334   149.3    22.3    24.5
...
2023 11 29    01 16 03.4 +14 01 03   0.5437  1.4302   136.4    28.4    25.6

M. P. C. Staff               (C) Copyright 2023 MPC           M.P.E.C. 2023-U282





More information about the Iaude mailing list